TimeEST,TemperatureF,Dew PointF,Humidity,Sea Level PressureIn,VisibilityMPH,Wind Direction,Wind SpeedMPH,Gust SpeedMPH,PrecipitationIn,Events,Conditions,WindDirDegrees,DateUTC
12:15 AM,34.9,28.0,76,30.12,10.0,SSW,5.8,-,N/A,,Clear,200,2013-01-24 05:15:00
12:35 AM,35.2,29.3,79,30.11,10.0,SSW,4.6,-,N/A,,Clear,210,2013-01-24 05:35:00
12:55 AM,36.5,30.2,78,30.10,10.0,SSW,4.6,-,N/A,,Clear,200,2013-01-24 05:55:00
1:15 AM,37.9,30.6,75,30.09,10.0,SSW,5.8,-,N/A,,Clear,210,2013-01-24 06:15:00
1:35 AM,41.9,30.9,65,30.08,10.0,SW,8.1,-,N/A,,Clear,220,2013-01-24 06:35:00
1:55 AM,42.1,31.3,66,30.08,10.0,SW,9.2,-,N/A,,Clear,220,2013-01-24 06:55:00
2:15 AM,41.5,31.8,68,30.06,10.0,SSW,8.1,-,N/A,,Clear,210,2013-01-24 07:15:00
2:35 AM,41.9,31.8,67,30.06,10.0,SW,8.1,-,N/A,,Clear,220,2013-01-24 07:35:00
2:55 AM,42.1,32.0,67,30.05,10.0,SW,9.2,-,N/A,,Clear,220,2013-01-24 07:55:00
3:15 AM,41.9,32.4,69,30.04,10.0,SW,8.1,-,N/A,,Clear,220,2013-01-24 08:15:00
3:35 AM,43.2,32.9,67,30.03,10.0,SW,6.9,-,N/A,,Clear,220,2013-01-24 08:35:00
3:55 AM,43.3,33.1,67,30.03,10.0,SW,5.8,-,N/A,,Clear,220,2013-01-24 08:55:00
4:15 AM,43.0,33.8,70,30.01,10.0,SW,8.1,-,N/A,,Clear,220,2013-01-24 09:15:00
4:35 AM,43.7,33.8,68,30.01,10.0,SW,4.6,-,N/A,,Clear,220,2013-01-24 09:35:00
4:55 AM,43.5,34.2,70,30.01,10.0,SW,5.8,-,N/A,,Clear,220,2013-01-24 09:55:00
5:15 AM,43.9,34.7,70,30.01,10.0,SW,5.8,-,N/A,,Clear,220,2013-01-24 10:15:00
5:35 AM,43.7,35.1,72,30.02,10.0,SW,6.9,-,N/A,,Clear,230,2013-01-24 10:35:00
5:55 AM,43.9,35.6,73,30.03,10.0,SW,6.9,-,N/A,,Clear,230,2013-01-24 10:55:00
6:15 AM,43.7,35.8,74,30.03,10.0,SW,3.5,-,N/A,,Clear,230,2013-01-24 11:15:00
6:35 AM,43.7,36.0,74,30.03,10.0,West,3.5,-,N/A,,Clear,260,2013-01-24 11:35:00
6:55 AM,43.0,36.1,77,30.04,10.0,Calm,Calm,-,N/A,,Clear,0,2013-01-24 11:55:00
7:15 AM,41.9,36.0,79,30.05,10.0,Calm,Calm,-,N/A,,Clear,0,2013-01-24 12:15:00
7:35 AM,40.6,36.5,85,30.06,10.0,Calm,Calm,-,N/A,,Clear,0,2013-01-24 12:35:00
7:55 AM,40.8,36.1,83,30.07,10.0,SW,3.5,-,N/A,,Clear,220,2013-01-24 12:55:00
8:15 AM,41.7,37.0,83,30.07,10.0,Calm,Calm,-,N/A,,Clear,0,2013-01-24 13:15:00
8:35 AM,43.7,37.4,78,30.08,10.0,Calm,Calm,-,N/A,,Clear,0,2013-01-24 13:35:00
8:55 AM,45.3,38.3,76,30.10,10.0,Calm,Calm,-,N/A,,Clear,0,2013-01-24 13:55:00
9:15 AM,48.0,39.2,72,30.11,10.0,West,4.6,-,N/A,,Clear,280,2013-01-24 14:15:00
9:35 AM,50.2,39.2,66,30.12,10.0,NNW,4.6,-,N/A,,Clear,330,2013-01-24 14:35:00
9:55 AM,48.7,36.7,63,30.14,10.0,North,6.9,17.3,N/A,,Scattered Clouds,10,2013-01-24 14:55:00
10:15 AM,47.3,32.2,56,30.16,10.0,NNE,11.5,21.9,N/A,,Scattered Clouds,20,2013-01-24 15:15:00
10:35 AM,46.6,27.0,46,30.18,10.0,NNE,8.1,16.1,N/A,,Clear,20,2013-01-24 15:35:00
10:55 AM,45.5,22.6,41,30.19,10.0,North,12.7,23.0,N/A,,Clear,10,2013-01-24 15:55:00
11:15 AM,45.9,22.6,40,30.19,10.0,North,8.1,23.0,N/A,,Clear,360,2013-01-24 16:15:00
11:35 AM,45.5,23.0,41,30.21,10.0,North,8.1,16.1,N/A,,Clear,350,2013-01-24 16:35:00
11:55 AM,45.7,21.6,38,30.21,10.0,NNE,11.5,20.7,N/A,,Clear,20,2013-01-24 16:55:00
12:15 PM,45.7,19.6,35,30.21,10.0,NE,13.8,18.4,N/A,,Clear,40,2013-01-24 17:15:00
12:35 PM,45.7,18.3,34,30.23,10.0,North,6.9,17.3,N/A,,Clear,360,2013-01-24 17:35:00
12:55 PM,46.0,17.2,32,30.23,10.0,North,5.8,-,N/A,,Clear,350,2013-01-24 17:55:00
1:15 PM,45.9,16.9,31,30.24,10.0,NNE,8.1,17.3,N/A,,Clear,20,2013-01-24 18:15:00
1:35 PM,46.2,17.4,32,30.24,10.0,North,5.8,18.4,N/A,,Clear,360,2013-01-24 18:35:00
1:55 PM,46.6,16.3,30,30.25,10.0,NNE,5.8,-,N/A,,Clear,20,2013-01-24 18:55:00
2:15 PM,45.5,15.6,30,30.26,10.0,North,9.2,-,N/A,,Clear,10,2013-01-24 19:15:00
2:35 PM,45.0,14.9,30,30.27,10.0,North,11.5,18.4,N/A,,Clear,10,2013-01-24 19:35:00
2:55 PM,44.8,14.7,30,30.29,10.0,NNE,11.5,19.6,N/A,,Clear,20,2013-01-24 19:55:00
3:15 PM,44.2,14.5,30,30.29,10.0,NNE,8.1,16.1,N/A,,Clear,30,2013-01-24 20:15:00
3:35 PM,43.2,14.0,31,30.30,10.0,NE,10.4,17.3,N/A,,Clear,40,2013-01-24 20:35:00
3:55 PM,42.4,14.5,32,30.32,10.0,North,6.9,16.1,N/A,,Clear,10,2013-01-24 20:55:00
4:15 PM,41.5,13.1,31,30.33,10.0,North,10.4,-,N/A,,Clear,10,2013-01-24 21:15:00
4:35 PM,40.5,11.1,30,30.34,10.0,NNE,10.4,17.3,N/A,,Clear,20,2013-01-24 21:35:00
4:55 PM,40.1,9.3,28,30.36,10.0,NNE,5.8,18.4,N/A,,Clear,20,2013-01-24 21:55:00
5:15 PM,38.5,8.4,29,30.38,10.0,NNE,6.9,-,N/A,,Clear,20,2013-01-24 22:15:00
5:35 PM,37.2,11.1,34,30.39,10.0,NNE,9.2,17.3,N/A,,Clear,20,2013-01-24 22:35:00
5:55 PM,35.6,13.1,40,30.40,10.0,NE,8.1,20.7,N/A,,Clear,40,2013-01-24 22:55:00
6:35 PM,33.4,12.7,42,30.43,10.0,NNE,8.1,19.6,N/A,,Clear,30,2013-01-24 23:35:00
6:55 PM,32.9,11.5,41,30.44,10.0,NE,11.5,16.1,N/A,,Clear,50,2013-01-24 23:55:00
7:15 PM,32.4,10.9,41,30.45,10.0,NE,9.2,-,N/A,,Clear,50,2013-01-25 00:15:00
7:35 PM,32.0,9.7,39,30.46,10.0,NNE,6.9,-,N/A,,Clear,30,2013-01-25 00:35:00
7:55 PM,32.0,9.3,39,30.46,10.0,NE,6.9,-,N/A,,Clear,40,2013-01-25 00:55:00
8:15 PM,31.5,9.1,39,30.47,10.0,NE,6.9,-,N/A,,Clear,40,2013-01-25 01:15:00
8:35 PM,30.9,9.5,41,30.48,10.0,NE,9.2,-,N/A,,Clear,50,2013-01-25 01:35:00
8:55 PM,30.6,7.3,38,30.48,10.0,NE,6.9,-,N/A,,Clear,40,2013-01-25 01:55:00
9:15 PM,30.0,7.9,39,30.49,10.0,NE,6.9,-,N/A,,Clear,50,2013-01-25 02:15:00
9:35 PM,29.7,7.0,38,30.50,10.0,NE,8.1,-,N/A,,Clear,50,2013-01-25 02:35:00
9:55 PM,28.9,7.5,41,30.50,10.0,ENE,5.8,-,N/A,,Clear,60,2013-01-25 02:55:00
10:15 PM,28.4,7.5,41,30.50,10.0,NE,8.1,-,N/A,,Clear,50,2013-01-25 03:15:00
10:35 PM,27.9,8.2,44,30.52,10.0,ENE,3.5,-,N/A,,Clear,60,2013-01-25 03:35:00
10:55 PM,27.7,7.5,43,30.51,10.0,NE,6.9,-,N/A,,Clear,40,2013-01-25 03:55:00
11:15 PM,28.2,5.9,39,30.51,10.0,NE,4.6,-,N/A,,Clear,50,2013-01-25 04:15:00
11:35 PM,27.5,7.5,43,30.51,10.0,NE,8.1,-,N/A,,Clear,50,2013-01-25 04:35:00
11:55 PM,27.3,6.8,42,30.51,10.0,NE,5.8,-,N/A,,Clear,50,2013-01-25 04:55:00